weather.gov     
National Weather Service

Regional Weather Roundup
NWS Homepage
This page is being discontinued on March 12, 2014.
The same data is available at this site. Please update your bookmarks.
Thank you, and we apologize for the inconvenience.
Please send an email to SR-SRH.Webmaster@noaa.gov with any concerns.


Current Version
Previous Version:    01  02  03  04  05  06  07  08  09  10  11  12  13  14  15  16  17  18  19  20  21  22  23  24  25  26  
[Printable]
609
ASPQ40 PGUM 240212
RWRPQ
WEATHER ROUNDUP FOR THE MARIANAS AND MICRONESIA
NATIONAL WEATHER SERVICE TIYAN GU
1200 PM CHST MON NOV 24 2014

GUZ001>004-240300-
MARIANA ISLANDS-

CITY           SKY/WX    TMP DP  RH WIND       PRES   REMARKS
GUAM AIRPORT   MOSUNNY   88  75  66 E14       29.89F HX  97
ANDERSEN AFB   MOSUNNY   84  75  74 E15       29.89F HX  92
ROTA AIRPORT   MOSUNNY   84  75  74 E14       29.90F HX  92
TINIAN AP      MOSUNNY   86  75  70 E15       29.88F HX  95
SAIPAN AP      MOSUNNY   86  75  70 E18       29.89F HX  95

$$

PMZ161-240300-
REPUBLIC OF PALAU-

CITY           SKY/WX    TMP DP  RH WIND       PRES   REMARKS
KOROR AP       PTSUNNY   86  79  79 E12       29.81F HX  99
KOROR WSO      LGT RAIN  86  79  79 NW6       29.80F HX  99

$$

PMZ171>174-240300-
FEDERATED STATES OF MICRONESIA-

CITY           SKY/WX    TMP DP  RH WIND       PRES   REMARKS
YAP AIRPORT    LGT RAIN  79  77  94 E12       29.79S
CHUUK AP       PTSUNNY   88  79  74 VRB6      29.79F HX 102
POHNPEI AP     LGT RAIN  82  77  83 S3        29.77F HX  91
POHNPEI WSO    NOT AVBL
KOSRAE AP      CLOUDY    86  79  79 E8        29.76F HX  99

$$

PMZ181-240300-
REPUBLIC OF THE MARSHALL ISLANDS-

CITY           SKY/WX    TMP DP  RH WIND       PRES   REMARKS
KWAJALEIN AP   MOSUNNY   88  73  62 NE17      29.78F HX  96
MAJURO AP      NOT AVBL
MAJURO WSO     PTSUNNY   88  79  74 NE10      29.74F HX 102

$$





U.S. Dept. of Commerce
NOAA National Weather Service
1325 East West Highway
Silver Spring, MD 20910
E-mail: w-nws.webmaster@noaa.gov
Page last modified: May 16, 2007
NATIONAL WEATHER SERVICE: for Safety, for Work, for Fun - FOR LIFE